Location: Groom Corners
(42.8351°N, 73.8437°W)
Time: 04:45:27
(UTC+00:00)

Daily predictions for brighter satellites

Satellite Brightness Start Highest point End
(mag) Time Altitude Azimuth Time Altitude Azimuth Time Altitude Azimuth
OAO 2 Rocket 4.4 00:03:56 10° SW 00:07:50 29° S 00:07:50 29° S
SeaSat 1 2.3 00:11:24 74° NE 00:11:24 74° NE 00:16:13 10° NNW
Cosmos 2219 3.9 00:06:59 10° NNW 00:12:35 52° WSW 00:17:55 11° S
USA 305 4.3 00:10:47 10° NW 00:13:35 31° N 00:13:35 31° N
YAOGAN 1 4.0 00:11:39 10° SSW 00:15:39 37° W 00:19:40 10° NNW
Cosmos 883 Rocket 4.3 00:13:11 10° S 00:19:20 80° E 00:25:30 10° N
USA 306 4.4 00:17:04 10° NW 00:19:37 30° NNW 00:19:37 30° NNW
S3M 4.4 00:15:56 10° SSW 00:21:58 61° W 00:28:04 10° N
Cosmos 2082 3.6 00:16:55 10° NNW 00:22:40 82° ENE 00:22:40 82° ENE
CZ-2C R/B 4.4 00:19:38 10° SSW 00:25:07 42° W 00:30:32 10° NNW
SL-4 R/B 4.2 00:22:41 10° NW 00:24:00 18° NNW 00:24:00 18° NNW
Cosmos 968 Rocket 4.1 00:21:22 10° NNW 00:26:27 52° WSW 00:28:17 35° SSW
Cosmos 1346 Rocket 4.2 00:25:09 10° NNW 00:28:22 37° WNW 00:28:22 37° WNW
Cosmos 2369 3.7 00:26:42 10° SSW 00:32:24 81° WNW 00:32:24 81° WNW
NOSS 3-4 (A) 4.4 00:26:59 10° NNW 00:32:51 41° NNE 00:32:51 41° NNE
NOSS 3-4 (C) 4.4 00:27:06 10° NNW 00:32:56 41° NNE 00:32:56 41° NNE
Atlas Centaur 2 3.9 00:27:38 10° SW 00:34:58 33° S 00:35:21 33° S
ARGOS 3.6 00:36:35 47° SSW 00:37:50 59° W 00:43:12 10° NNW
NOSS 3-3 (A) 4.1 00:35:23 10° SW 00:41:07 68° NW 00:41:50 62° NNW
NOSS 3-3 (C) 4.1 00:35:28 10° SW 00:41:15 68° NW 00:41:58 63° N
USA 215 3.6 00:42:31 51° NNE 00:42:31 51° NNE 00:48:25 10° NW
Cosmos 2227 Rocket 3.6 00:43:46 10° NW 00:48:49 34° WSW 00:51:12 24° SSW
ATLAS 2AS CENTAUR R/B 3.6 00:48:39 10° NNW 00:54:14 40° NNE 00:54:14 40° NNE
Cosmos 2263 Rocket 4.0 00:52:47 10° NNW 00:54:45 21° N 00:54:45 21° N
Cosmos 1697 Rocket 3.9 01:00:39 10° SW 01:05:51 39° WNW 01:06:00 39° NW
Lacrosse 5 4.3 01:02:14 10° NNW 01:03:38 15° NNW 01:03:38 15° NNW
H-2A R/B (2) 4.4 00:32:32 10° WSW 01:08:04 39° SSW 01:09:35 37° S
H-2A R/B 4.2 01:04:41 10° SW 01:08:56 23° W 01:13:15 10° NW
CZ-4C R/B 4.2 01:21:45 10° NNW 01:25:16 28° N 01:25:16 28° N
USA 234 4.3 07:58:56 10° NE 08:03:15 35° N 08:03:15 35° N
ADEOS Rocket 4.1 08:09:17 10° SE 08:14:14 36° ENE 08:19:18 10° N
DELTA 2 R/B (1) 4.4 08:44:03 42° SSE 08:44:03 42° SSE 08:48:08 10° ESE
NOSS 3-2 (C) 3.3 08:44:10 77° NNE 08:44:10 77° NNE 08:50:10 10° NE
ISS -0.8 08:46:04 17° E 08:46:04 17° E 08:47:09 10° ENE
ALOS 4.1 08:50:53 10° NE 08:54:59 29° E 08:59:03 10° SSE
Lacrosse 4 Rocket 2.7 08:57:05 35° NE 08:57:05 35° NE 08:59:31 10° NNE
CENTAUR R/B 2.3 08:57:17 71° W 08:57:39 73° NW 09:04:38 10° NNE
CZ-2C R/B 2.2 09:00:10 10° NNE 09:05:11 89° W 09:05:24 82° SSW
Cosmos 1626 3.9 09:04:00 10° SSE 09:07:16 31° E 09:10:33 10° NNE
ADEOS 4.4 09:06:51 10° NNE 09:11:56 50° E 09:16:59 10° S
PAYLOAD A 3.9 09:07:21 10° N 09:12:25 69° WNW 09:12:42 67° W
Cosmos 1833 Rocket 3.0 09:08:56 18° S 09:13:10 66° ESE 09:18:47 10° NNE
In-Cosmos 22 4.0 09:14:21 61° WNW 09:14:21 61° WNW 09:19:33 10° N
Cosmos 2180 Rocket 4.3 09:08:29 10° N 09:14:46 82° W 09:20:56 10° S
Nadezhda 4 Rocket 4.2 09:09:17 10° S 09:15:20 68° E 09:21:25 10° NNE
Cosmos 1302 Rocket 3.9 09:13:14 21° NNW 09:16:53 89° E 09:22:09 10° SSE
Cosmos 1269 Rocket 3.9 09:17:07 61° WSW 09:17:40 66° WNW 09:22:58 10° NNE
Geosat 4.0 09:17:15 10° SSE 09:22:16 81° ENE 09:26:27 15° NNW
Lacrosse 5 rocket 1.2 09:22:55 70° ESE 09:22:55 70° ESE 09:26:32 10° NE
H-2A R/B 4.5 09:20:34 10° S 09:20:50 11° S 09:20:50 11° S
Cosmos 2369 4.3 09:20:37 10° NNW 09:26:13 57° ENE 09:31:45 10° SE
Meteor 1-31 Rocket 3.9 09:24:39 10° NNE 09:28:27 44° E 09:32:12 10° S
Cosmos 2344 4.0 09:27:00 34° WNW 09:29:09 41° NW 09:36:50 10° NNE
USA 238 DEB 4.2 09:29:28 34° WNW 09:30:46 37° NW 09:37:08 10° NNE
USA 238 4.2 09:29:32 34° WNW 09:30:53 37° NW 09:37:14 10° NNE
Cosmos 2082 Rocket 3.0 09:26:48 10° S 09:32:13 52° ESE 09:37:40 10° NNE
Meteor 1-16 Rocket 4.1 09:27:28 10° NNW 09:32:36 51° W 09:37:44 10° S
NOSS 3-2 (A) 4.3 09:34:08 29° NW 09:35:05 30° NW 09:40:50 10° NNE
SJ-6F 4.2 09:31:38 10° N 09:35:44 78° WNW 09:39:21 13° SSW
CZ-4B R/B 1.4 09:35:53 10° SSE 09:39:20 85° E 09:42:45 10° NNW
Cosmos 1536 Rocket 4.5 09:40:50 31° NW 09:40:50 31° NW 09:43:52 10° N
Cosmos 1656 3.8 09:36:09 22° NW 09:39:41 54° WSW 09:45:11 10° S
CZ-4B R/B 4.3 09:37:31 10° NNE 09:41:45 66° ESE 09:45:44 10° S
Cosmos 220 Rocket 4.5 09:38:13 10° NNW 09:42:39 63° ENE 09:47:01 10° SSE
ATLAS 3B R/B 2.7 09:37:25 10° SSW 09:43:58 77° ESE 09:50:37 10° NE
deb Chang Zheng 4 3.5 09:40:05 10° NNE 09:44:21 83° ESE 09:48:36 10° SSW
Meteor 2-5 Rocket 3.8 09:38:52 10° S 09:44:32 86° E 09:50:22 10° N
COSMOS 2406 3.4 09:48:10 23° SW 09:51:29 49° WNW 09:56:59 10° NNE
Cosmos 1892 Rocket 4.1 09:50:07 10° S 09:54:23 61° E 09:58:42 10° NNE
Cosmos 1400 Rocket 3.5 09:51:58 10° N 09:55:52 55° ENE 09:59:40 10° SSE
Cosmos 1992 Rocket 4.0 09:52:18 10° NNW 09:57:33 82° ENE 10:02:46 10° SSE
Cosmos 1697 Rocket 2.6 09:52:46 10° NNW 09:58:24 70° WSW 10:04:01 10° SSE
ADEOS Rocket 3.4 09:55:08 10° SSW 09:59:53 29° W 10:04:41 10° NW
ARGOS Delta rocket 4.2 09:56:19 10° NNE 10:01:45 87° ESE 10:07:15 10° S
ERS-2 2.8 10:01:12 10° SSW 10:04:28 32° W 10:05:48 24° WNW
BREEZE-M DEB (TANK) 2.7 10:04:38 26° SW 10:04:51 26° SW 10:06:49 10° SSE
Cosmos 44 Rocket 4.0 10:04:23 21° WNW 10:07:09 35° WSW 10:11:50 10° S
SL-19 R/B 3.4 10:05:41 10° N 10:08:29 61° WNW 10:11:18 10° SSW
SKYMED 2 3.6 10:04:15 10° SSE 10:08:35 84° ENE 10:12:57 10° NNW
SAR-Lupe-4 3.5 10:06:15 10° S 10:09:45 57° WSW 10:13:18 10° NNW
SJ-12 3.9 10:06:30 10° NNE 10:10:38 88° WNW 10:14:44 10° SSW
FENGYUN 3A 3.8 10:06:09 10° N 10:11:25 53° WNW 10:16:41 10° SW
Cosmos 2026 Rocket 4.1 10:06:23 10° S 10:12:44 87° E 10:19:11 10° N
Abrixas rocket 2.8 10:11:30 22° NW 10:12:53 40° NNE 10:15:37 10° E
Cosmos 1461 3.2 10:10:10 11° SW 10:14:23 56° NW 10:19:02 10° NNE
TELKOM 3 3.8 10:12:56 24° WSW 10:14:47 70° NNW 10:18:43 10° ENE
Cosmos 2195 Rocket 4.4 10:11:08 10° SSW 10:17:21 74° W 10:23:32 10° N
Cosmos 1689 Rocket 1.9 10:15:03 10° S 10:17:58 73° W 10:20:53 10° NNW
SL-14 R/B 3.7 10:14:19 10° SSW 10:18:04 40° WNW 10:21:53 10° N
Cosmos 2251 Rocket 3.5 10:12:51 10° SSW 10:18:11 70° WNW 10:23:33 10° NNE
Cosmos 1980 Rocket 2.2 10:14:45 10° NNW 10:20:22 87° WSW 10:25:58 10° SSE
ISS -3.2 10:19:03 21° W 10:20:54 42° NNW 10:24:08 10° NE
USA 290 2.4 10:20:13 10° SW 10:23:19 47° WNW 10:26:29 10° N
Cosmos 1315 Rocket 4.3 10:21:21 10° N 10:25:16 41° ENE 10:29:10 10° SSE
Cosmos 614 Rocket 4.3 10:22:08 10° S 10:27:15 73° ESE 10:32:23 10° NNE
Cosmos 1300 3.0 10:23:48 10° NNW 10:27:26 42° W 10:31:02 10° SSW
Cosmos 2360 4.5 10:26:26 10° NW 10:31:54 48° WSW 10:37:17 10° S
ALOS 3.1 10:28:18 10° N 10:32:20 29° WNW 10:36:21 10° SW
PSLV R/B 4.0 10:28:15 10° S 10:32:23 60° WSW 10:36:34 10° NNW
Lacrosse 4 Rocket 3.2 10:33:26 12° WNW 10:34:40 13° NW 10:36:40 10° NNW
Cosmos 1726 Rocket 4.0 10:32:30 10° NNW 10:36:39 39° W 10:40:48 10° SSW
Cosmos 1484 Rocket 4.1 10:35:39 10° NNW 10:38:28 19° WNW 10:41:14 10° WSW
CZ-2C R/B 4.2 10:40:45 10° NW 10:42:34 12° WNW 10:44:22 10° W
Cosmos 1626 3.7 10:40:11 10° WSW 10:42:35 16° WNW 10:45:00 10° NNW
Cosmos 2278 3.9 10:41:40 10° NW 10:47:08 51° WSW 10:52:33 10° S
Aureole 3 4.0 10:43:14 10° NNW 10:47:13 47° W 10:52:12 10° SSW
H-2A R/B 2.7 10:43:58 10° N 10:47:47 85° WNW 10:51:38 10° SSW
Cosmos 2228 4.2 10:45:09 10° NW 10:48:30 22° W 10:51:50 10° SW
CZ-4B R/B 3.4 10:44:51 10° N 10:48:35 38° WNW 10:52:28 10° SW
CENTAUR R/B 4.0 10:44:47 10° WNW 10:49:43 22° NNW 10:55:18 10° NNE
Cosmos 2098 Rocket 3.9 10:43:50 10° S 10:50:14 83° E 10:55:22 10° N
Cosmos 2322 Rocket 3.5 10:45:44 10° NNW 10:51:06 41° ENE 10:56:25 10° SE
CREW DRAGON DEMO-1 DEB 4.3 10:51:00 10° NW 10:53:43 29° NNE 10:56:25 10° E
CZ-3 R/B 3.6 10:49:28 10° WSW 11:04:19 32° SSW 11:09:47 10° SE
